{"data":{"norad_id":47845,"intl_designator":"2021-018BL","name":"STARLINK-2453","alt_names":[],"object_type":"PAYLOAD","status":"ACTIVE","operator":null,"country":"US","launch_date":"2021-03-11","launch_site_code":"AFETR","launch_vehicle":null,"mission":null,"orbit_class":"UNKNOWN","rcs_meters":null,"size_class":null,"mass_kg":null,"dimensions":null,"purposes":["comms"],"wikipedia_slug":null,"has_3d_model":false,"image_url":null,"decayed_at":null,"tle_current":{"epoch":"2026-09-19T20:15:40.068864Z","epoch_age_seconds":85823,"freshness":"FRESH","line1":"1 47845U 21018BL  26262.84421376  .00000436  00000+0  25799-4 0  9991","line2":"2 47845  53.1593  75.0630 0001027  90.5069 269.6050 15.31709502306242","mean_motion":15.31709502,"eccentricity":0.0001027,"inclination_deg":53.1593,"raan_deg":75.063,"arg_perigee_deg":90.5069,"mean_anomaly_deg":269.605,"bstar":2.5799e-5,"rev_number":30624,"period_min":94.012604747816,"perigee_km":470.00829364607,"apogee_km":471.41504716297,"semimajor_km":6848.8486704045,"source":"CELESTRAK","updated_at":"2026-09-20T09:00:38.754298Z"}}}